Regional Weather Roundup
Issued by NWS Charleston, SC

Home | Current Version | Previous Version | Text Only | Print | Product List | Glossary On
Versions: 1 2 3 4 5 6 7 8 9 10 11 12 13 14 15 16 17 18 19 20 21 22 23 24 25 26 27 28 29 30 31 32 33 34 35 36 37 38 39 40 41 42 43 44 45 46 47 48 49 50
000
ASUS42 KCHS 041912
RWRCHS

REGIONAL WEATHER ROUNDUP
NATIONAL WEATHER SERVICE CHARLESTON SC
300 PM EDT FRI SEP 04 2015

NOTE: "FAIR" INDICATES FEW OR NO CLOUDS BELOW 12,000 FEET WITH NO
SIGNIFICANT WEATHER AND/OR OBSTRUCTIONS TO VISIBILITY.

NOT ALL STATIONS ARE QUALITY CONTROLLED BY THE NATIONAL
WEATHER SERVICE. USE DATA WITH CAUTION...ESPECIALLY
DEWPOINT OBSERVATIONS.

SCZ027-030-031-034>040-042>050-042000-
...SOUTHEAST SOUTH CAROLINA...

CITY           SKY/WX    TMP DP  RH WIND       PRES   REMARKS
N CHARLESTON   MOSUNNY   89  74  60 SE13      29.94F HX  98
WATERFRONT PRK   N/A     86  78  77 SE13      29.93F HX  98
MOUNT PLEASANT HVY RAIN  79  75  89 SE5       29.96S VSB 1
JOHNS ISLAND   FAIR      86  77  74 SE9       29.95F HX  97
PINOPOLIS        N/A     93  72  49 VRB3      29.89R HX 100
MONCKS CORNER  FAIR      93  70  46 CALM      29.95F HX  99
SUMMERVILLE    FAIR      95  68  41 CALM      29.95F HX  99
BEAUFORT MCAS  MOSUNNY   93  73  52 SE3       29.94F HX 102
BEAUFORT ARPT  FAIR      90  79  70 SE6       29.94F HX 105
HILTON HEAD IS MOSUNNY   90  77  66 CALM      29.96F HX 102
WALTERBORO     PTCLDY    95  70  43 SE8       29.95F HX 101
ALLENDALE      FAIR      88  73  62 CALM      29.95S HX  96

...SOUTHERN MIDLANDS AND PEE DEE...

CITY           SKY/WX    TMP DP  RH WIND       PRES   REMARKS
GEORGETOWN     NOT AVBL
KINGSTREE      NOT AVBL
ORANGEBURG     LGT RAIN  80  69  69 S12       29.96F
BARNWELL       FAIR      97  68  38 N3        29.95F HX 101
AIKEN          FAIR      91  59  33 NW12      30.00F HX  90
MANNING        FAIR      93  63  36 N5        29.95F HX  94
COLUMBIA       MOSUNNY   94  65  38 SE5       29.95F HX  96
SUMTER         MOSUNNY   92  64  39 VRB6      29.94F HX  93
FLORENCE       MOSUNNY   94  67  41 E8        29.95F HX  97
MYRTLE BEACH   MOSUNNY   88  73  62 S7        29.98F HX  96
N MYRTLE BEACH SUNNY     85  74  69 SE9       29.96F HX  92

$$

GAZ063-065-086>088-099>101-113>116-118-119-134>141-150-042000-
...SOUTHEAST GEORGIA...

CITY           SKY/WX    TMP DP  RH WIND       PRES   REMARKS
SAVANNAH ARPT  PTSUNNY   83  73  72 SE8       29.96R THUNDER
HUNTER AAF     LGT RAIN  84  77  79 S2        29.93S HX  94
FORT STEWART   PTSUNNY   84  71  63 S10G24    29.94R THUNDER
STATESBORO     PTSUNNY   93  76  57 SE7       29.95F HX 106
SYLVANIA       NOT AVBL
CLAXTON        NOT AVBL

...CSRA...CENTRAL AND FAR SOUTHEAST GEORGIA...

CITY           SKY/WX    TMP DP  RH WIND       PRES   REMARKS
THOMSON        MOSUNNY   93  73  51 NW5       30.01F HX 102
AUGUSTA-BUSH   MOSUNNY   96  68  39 VRB3      29.94F HX 101
AUGUSTA-DANIEL MOSUNNY   95  68  41 N8        29.97F HX  99
SWAINSBORO     FAIR      90  70  51 CALM      29.97F HX  95
VIDALIA        MOSUNNY   90  72  55 SW3       29.96F HX  96
EASTMAN        FAIR      93  72  49 NE5       29.99S HX 100
HAZLEHURST     FAIR      91  72  54 CALM      29.95F HX  98
ALMA           MOSUNNY   93  71  48 NW5       29.94F HX 100
WAYCROSS       MOSUNNY   95  77  55 S3        29.94F HX 109
JESUP          MOCLDY    95  77  55 CALM      29.94F HX 109
BAXLEY         FAIR      95  72  46 CALM      29.94F HX 103
BRUNSWICK      MOSUNNY   82  72  69 E9        29.95F
SAINT SIMONS   MOSUNNY   87  76  69 E7        29.95F HX  97

$$

SCZ027-028-034-036>038-045-046-048>050-GAZ119-141-042000-
...LAKE AND SUPPLEMENTAL COASTAL OBSERVATIONS...

STATION/POSITION TIME  TEMP    WIND        PRES    WAVE   SWELL
                       AIR SEA DIR/SP/G            HT/PER HT/PER/DIR
                 (UTC) (F)     (DEG/KT/KT) (MB)    (FT/S) (FT/S/D)
UPR LAKE MARION  NOT AVBL
WINYAH BAY       NOT AVBL
LAKE MURRAY      1800   92      CALM  /  5 1014.2F
ACE BASIN NERRS  NOT AVBL
FORT PULASKI     1800   86 84   80/  7/  8 1015.1F
SAPELO ISLAND    1800   89      90/  6     1014.0F

$$

ANZ835-935-AMZ111-154-330-350-352-354-370-450-454-472-042000-
...C-MAN AND BUOY OBSERVATIONS...

STATION/POSITION TIME  TEMP    WIND        PRES    WAVE   SWELL
                       AIR SEA DIR/SP/G            HT/PER HT/PER/DIR
                 (UTC) (F)     (DEG/KT/KT) (MB)    (FT/S) (FT/S/D)
BUOY 41004       1850   83 86   70/  4/  6 1014.3F   1/ 8   2/ 8
BUOY 41008       1850   84 87   60/  2/  4 1014.4F   1/ 8
FOLLY BEACH CMAN 1800   84     140/ 10/ 11 1015.0F
CAPERS NEARSHORE 1808   84     130/ 10/ 12 1015.0R
FRIPP NEARSHORE  1800   87     120/  6/  6 1014.3F


STATION/POSITION TIME  TEMP    WIND        PRES    WAVE   SWELL
                       AIR SEA DIR/SP/G            HT/PER HT/PER/DIR
                 (UTC) (F)     (DEG/KT/KT) (MB)    (FT/S) (FT/S/D)
5E ST. MARYS GA  1821      87                N/A     1/13
FRYING PAN BUOY  1850   83 83   70/  6/  8 1015.2F   1/ 4   2/210/ 4
BUOY 41025       1850   83 85  360/  4/  6 1014.2F   1/11   2/350/11
CAPE LOOKOUT NC  1800   84      90/  4/  6 1014.5F
BUOY 41002       1850   83 85   30/  4/  6 1013.7F   2/11   2/ 60/11
BUOY 41010       1820   82 86   10/  8/ 10 1014.4R
ST AUGUSTINE FL  1900   83 85   40/  8/  8 1014.9F


$$



USA.gov is the U.S. government's official web portal to all federal, state and local government web resources and services.